GW6357 Weather Reports


time (UTC)temp
F
wind
direction
speed
knots
gust
knots
rain 1hr
in
rain 24hr
in
rain mn
in
humidity
%
barometer
mb
20260504081526 53 141 0.0 0.0 0.00 0.00 0.00 94 1017.8
20260504044525 57 141 0.0 0.0 0.00 0.00 0.00 88 1019.3
20260504043030 57 141 0.0 0.0 0.00 0.00 0.00 88 1019.5
20260504041529 57 141 0.0 0.0 0.00 0.00 0.00 89 1019.4
20260504040020 56 141 0.0 0.0 0.00 0.00 0.00 89 1019.4
20260504034526 57 141 0.0 0.0 0.00 0.00 0.00 87 1019.4
20260504033030 57 141 0.0 0.0 0.00 0.00 0.00 87 1019.4
20260504031530 57 141 0.0 0.0 0.00 0.00 0.00 87 1019.4
20260504030017 58 141 0.0 0.0 0.00 0.00 0.00 85 1019.4
20260504024524 58 141 0.0 0.0 0.00 0.00 0.00 84 1019.1
20260504023025 59 141 0.0 0.0 0.00 0.00 0.00 83 1018.8
20260504021509 59 142 0.0 0.0 0.00 0.00 0.00 80 1018.7
20260504020016 61 141 0.0 0.0 0.00 0.00 0.00 78 1018.5
20260504014524 62 141 0.0 0.0 0.00 0.00 0.00 75 1018.6
20260504013023 63 141 0.0 0.0 0.00 0.00 0.00 74 1018.3
20260504011524 64 228 0.0 0.0 0.00 0.00 0.00 71 1018.1
20260504010009 65 228 0.0 0.0 0.00 0.00 0.00 68 1018.1
20260504004519 67 227 0.0 0.0 0.00 0.00 0.00 63 1018.1
20260504003021 70 229 0.0 0.0 0.00 0.00 0.00 54 1017.9
20260504001525 73 165 0.0 2.6 0.00 0.00 0.00 47 1017.9
20260504000025 74 140 0.9 3.5 0.00 0.00 0.00 45 1017.8
20260503234512 75 225 0.9 4.3 0.00 0.00 0.00 43 1017.8
20260503233026 74 248 1.7 6.1 0.00 0.00 0.00 44 1018.0
20260503231522 75 281 1.7 5.2 0.00 0.00 0.00 43 1018.0
20260503230028 75 217 1.7 6.1 0.00 0.00 0.00 42 1018.0
20260503224530 75 264 2.6 6.1 0.00 0.00 0.00 43 1018.2
20260503223013 76 223 1.7 7.0 0.00 0.00 0.00 41 1018.2
20260503221526 75 253 3.5 7.0 0.00 0.00 0.00 41 1018.3
20260503220024 76 257 2.6 6.1 0.00 0.00 0.00 40 1018.5
20260503214526 76 249 2.6 5.2 0.00 0.00 0.00 38 1018.6
20260503213030 76 146 1.7 7.0 0.00 0.00 0.00 39 1018.8
20260503211516 77 139 2.6 5.2 0.00 0.00 0.00 38 1018.9
20260503210021 76 215 2.6 7.0 0.00 0.00 0.00 39 1019.1
20260503204526 75 202 1.7 9.6 0.00 0.00 0.00 39 1019.3
20260503203028 76 163 3.5 8.7 0.00 0.00 0.00 39 1019.6
20260503201528 77 262 1.7 5.2 0.00 0.00 0.00 37 1019.7
20260503200019 76 283 2.6 6.1 0.00 0.00 0.00 38 1020.1
20260503194524 76 300 0.9 7.0 0.00 0.00 0.00 38 1020.3
20260503193027 76 212 4.3 8.7 0.00 0.00 0.00 36 1020.5
20260503191530 75 246 6.1 9.6 0.00 0.00 0.00 37 1020.8
20260503190030 76 159 2.6 5.2 0.00 0.00 0.00 35 1020.8
20260503184521 76 190 0.9 6.1 0.00 0.00 0.00 35 1021.1
20260503183025 76 356 1.7 7.8 0.00 0.00 0.00 34 1021.4
20260503181527 76 219 1.7 3.5 0.00 0.00 0.00 33 1021.5
20260503180030 75 89 3.5 7.0 0.00 0.00 0.00 34 1021.7
20260503174515 74 97 2.6 9.6 0.00 0.00 0.00 35 1021.8
20260503173027 74 313 1.7 7.0 0.00 0.00 0.00 35 1022.1
20260503171506 75 337 2.6 7.8 0.00 0.00 0.00 36 1022.3